Regional Weather Roundup
Issued by NWS

Current Version | Previous Version | Text Only | Print | Product List | Glossary On
Versions: 1 2 3 4 5 6 7 8 9 10 11 12 13 14 15 16 17 18 19 20 21 22 23 24 25 26 27 28 29 30 31 32 33 34 35 36 37 38 39 40 41 42 43 44 45 46 47 48 49 50
000
ASUS43 KDMX 310807
RWRIA

WEATHER ROUNDUP FOR IOWA
NATIONAL WEATHER SERVICE DES MOINES IA
300 AM CDT FRI JUL 31 2015

NOTE: "FAIR" INDICATES FEW OR NO CLOUDS BELOW 12,000 FEET WITH NO
SIGNIFICANT WEATHER AND/OR OBSTRUCTIONS TO VISIBILITY.

* - THESE STATIONS ARE NOT NWS STATIONS...THUS NOT UNDER NWS
QUALITY CONTROL.  THEY ALSO DO NOT REPORT WEATHER SUCH
AS PRECIPITATION OR FOG.

IAZ001>003-012>014-020>022-031>034-043>046-310900-
   NORTHWEST IOWA

CITY           SKY/WX    TMP DP  RH WIND       PRES   REMARKS
CARROLL *      CLEAR     68  64  88 VRB5      30.11F
CHEROKEE *     CLEAR     64  64 100 CALM      30.12S
DENISON *      CLEAR     66  64  94 CALM      30.11S
LE MARS *      CLEAR     64  64 100 CALM      30.13S
ORANGE CITY *  CLEAR     66  64  94 CALM      30.13R
SHELDON *      CLEAR     61  61 100 CALM      30.12F
SIOUX CITY     PTCLDY    70  64  81 CALM      30.13S
SPENCER        CLEAR     64  60  87 NW6       30.13R
STORM LAKE *   CLEAR     66  63  88 SW7       30.13F
$$

IAZ055>058-069>071-079>083-090>094-310900-
   SOUTHWEST IOWA

CITY           SKY/WX    TMP DP  RH WIND       PRES   REMARKS
ATLANTIC *     MOCLDY    68  68 100 S5        30.15S
AUDUBON *      CLEAR     64  63  94 CALM      30.15S
CLARINDA *     CLEAR     66  66 100 CALM      30.17S
COUNCIL BLFS *   N/A     70  64  83 CALM      30.16S
CRESTON *      MOCLDY    68  64  88 SW3       30.17S
HARLAN  *      PTCLDY    68  68 100 SW6       30.18S
LAMONI         MOCLDY    70  63  78 SW8       30.15S
RED OAK *      CLOUDY    68  66  94 CALM      30.15S
SHENANDOAH *   PTCLDY    66  64  94 CALM      30.15S
$$

IAZ047>049-059>061-072>074-084-310900-
   CENTRAL IOWA

CITY           SKY/WX    TMP DP  RH WIND       PRES   REMARKS
AMES           CLEAR     65  63  93 SW6       30.10F
ANKENY *       CLEAR     64  64 100 CALM      30.11F
CHARITON *     PTCLDY    70  64  83 SW6       30.14S
DES MOINES     PTCLDY    71  64  78 SW5       30.11F
GRINNELL*      CLEAR     66  63  88 SW7       30.11F
KNOXVILLE *    CLEAR     70  64  83 SW8       30.11F
MARSHALLTOWN   CLEAR     66  63  90 SW6       30.09F
PELLA *        CLEAR     70  68  94 W6        30.12F
PERRY *          N/A     66  64  94 SW5       30.11F
$$

IAZ004>006-015-016-023>025-035-036-310900-
   NORTH CENTRAL IOWA

CITY           SKY/WX    TMP DP  RH WIND       PRES   REMARKS
ALGONA *       CLEAR     68  64  88 NW8       30.11S
CLARION *      CLEAR     63  61  94 S5        30.10S
ESTHERVILLE    CLEAR     63  61  93 W7        30.12S
FORT DODGE *   CLEAR     66  61  82 SW3       30.11S
MASON CITY     CLEAR     68  65  90 W10       30.11R
FOREST CITY *  CLEAR     64  63  94 W6        30.10S
IOWA FALLS *     N/A     66  63  88 W6        30.11S
$$

IAZ007>011-017>019-026>030-037>042-050>054-066-310900-
   NORTHEAST IOWA

CITY           SKY/WX    TMP DP  RH WIND       PRES   REMARKS
CEDAR RAPIDS   CLEAR     66  66 100 W7        30.08S
CHARLES CITY * CLEAR     68  68 100 W9        30.08S
CLINTON *      CLEAR     63  63 100 W7        30.09F
DECORAH *      PTCLDY    66  63  88 VRB5      30.05R
DUBUQUE        CLEAR     62  60  93 SW6       30.07S
MONTICELLO *   CLEAR     63  63 100 CALM      30.07S
OELWEIN *        N/A     66  64  94 W6        30.08S
WATERLOO       CLEAR     68  65  90 SW7       30.06S
$$

IAZ064-065-067-068-078-310900-
   EAST CENTRAL IOWA

CITY           SKY/WX    TMP DP  RH WIND       PRES   REMARKS
DAVENPORT      CLEAR     67  64  90 W5        30.09S
IOWA CITY      CLEAR     68  63  84 W7        30.10S
MT. PLEASANT * CLEAR     68  64  88 W5        30.12R
MUSCATINE *    CLEAR     70  64  83 W5        30.09S
QUAD CITIES    CLEAR     68  64  87 SW3       30.08S
$$

IAZ062-063-075>077-085>089-095>099-310900-
   SOUTHEAST IOWA

CITY           SKY/WX    TMP DP  RH WIND       PRES   REMARKS
BURLINGTON     CLEAR     70  66  87 W5        30.10S
FAIRFIELD *    CLEAR     66  64  94 W5        30.12R
FORT MADISON * CLEAR     70  64  83 W5        30.12S
KEOKUK *       CLEAR     70  66  88 W5        30.11S
OSKALOOSA *      N/A     64  63  94 W5        30.12S
CENTERVILLE *  CLEAR     66  64  94 W6        30.16S
OTTUMWA        CLEAR     67  65  93 W6        30.11S
WASHINGTON *   CLEAR     66  64  94 W7        30.12S
$$

ABBREVIATIONS USED IN REMARKS
   TC - TEMPERATURES IN CELSIUS
  WCI - WIND CHILL INDEX
   HX - HEAT INDEX
  VSB - VISIBILITY
$$




USA.gov is the U.S. government's official web portal to all federal, state and local government web resources and services.